FlightSource - Aviation Photo Database

World Wide Airport Lookup


Search by ICAO
Or
Search by City

FlightSource.ca - Aviation Photo Database - Regina International Airport Information
Airport Identification
Name: Regina International Airport
ICAO: CYQR
IATA: YQR
Airport Location
City: Regina
Region: SK
Country: Canada
Continent: North America
Latitude: 50.4319
Longitude: -104.666
Airport Information
Type: Medium Airport
Elevation: 1894 Feet ASL
Flight Status: CYQR
More Info: CYQR
Airport Weather    
Metar: CYQR 190400Z 33008KT 15SM SKC M21/M24 A3010 RMK SLP252
TAF:


Advertisement